Regional Weather Roundup
Issued by NWS

Home | Current Version | Previous Version | Graphics & Text | Print | Product List | Glossary On
Versions: 1 2 3 4 5 6 7 8 9 10 11 12 13 14 15 16 17 18 19 20 21 22 23 24 25 26 27
000
ASUS45 KBOU 291707
RWRCO

WEATHER ROUNDUP FOR COLORADO
NATIONAL WEATHER SERVICE DENVER/BOULDER CO
1100 AM MDT FRI JUL 29 2016

NOTE: "FAIR" INDICATES FEW OR NO CLOUDS BELOW 12000 FEET WITH NO
SIGNIFICANT WEATHER AND/OR OBSTRUCTIONS TO VISIBILITY.

COZ001>005-013-030-031-291800-
...NORTHWEST COLORADO...

CITY           SKY/WX    TMP DP  RH WIND       PRES   REMARKS
CRAIG          FAIR      77  39  25 NE3       30.24F
HAYDEN         FAIR      72  37  28 E3        30.27F
MEEKER         FAIR      77  38  24 VRB3      30.25F
MOUNT WERNER   NOT AVBL
STEAMBOAT SPGS FAIR      71  38  30 W3        30.28F
WALDEN         FAIR      68  46  45 CALM      30.38F
$$

COZ006>008-011-291800-
...WEST CENTRAL VALLEYS...

CITY           SKY/WX    TMP DP  RH WIND       PRES   REMARKS
GRAND JUNCTION FAIR      87  32  14 S10       30.10F
MONTROSE       FAIR      84  41  21 CALM      30.19F
EAGLE          SUNNY     75  32  20 CALM      30.27F
RIFLE          FAIR      82  36  19 N5        30.17F
DELTA          NOT AVBL
NUCLA          NOT AVBL
$$

COZ017>023-064>068-291800-
...SOUTHWEST COLORADO...

CITY           SKY/WX    TMP DP  RH WIND       PRES   REMARKS
DURANGO        FAIR      81  41  24 E7        30.26S
CORTEZ         FAIR      88  38  17 S5        30.18F
PAGOSA SPRINGS FAIR      78  34  20 SW5       30.35S
TELLURIDE      FAIR      75  29  18 CALM      30.48S
WOLF CREEK PAS FAIR      61  34  36 CALM      30.71S
$$

COZ009-010-012-014-032>034-037-058>063-291800-
...CENTRAL COLORADO...

CITY           SKY/WX    TMP DP  RH WIND       PRES   REMARKS
ASPEN          FAIR      79  32  18 N7        30.33F
BUENA VISTA    FAIR      74  41  29 E5        30.33F
COPPER MTN     FAIR      61  27  27 W13G25    30.67R
BERTHOUD PASS  FAIR      52  36  54 N9G22     30.68R
COTTONWOOD PAS FAIR      72  34  25 E3        30.48S
GUNNISON       FAIR      72  34  25 SW3       30.36F
KREMMLING      FAIR      72  34  25 W3        30.33F
LEADVILLE      FAIR      68  18  14 W10G25    30.48R
MONARCH PASS   FAIR      59  30  33 MISG      30.76S
SALIDA         FAIR      74  51  44 N5        30.37F
SUNLIGHT       FAIR      66  32  28 MISG      30.61S
WILKERSON PASS FAIR      61  34  36 CALM      30.62R
$$

COZ069>075-291800-
...SAN LUIS VALLEY/SANGRE DE CRISTO MOUNTAINS...

CITY           SKY/WX    TMP DP  RH WIND       PRES   REMARKS
ALAMOSA        FAIR      76  43  30 VRB6      30.32R
LA VETA PASS   FAIR      70  37  30 S9        30.52R
SAGUACHE       FAIR      77  43  29 S8        30.34S
$$

COZ035-036-038>040-291800-
...NORTHERN COLORADO FRONT RANGE...

CITY           SKY/WX    TMP DP  RH WIND       PRES   REMARKS
DENVER INTL AP FAIR      77  57  50 N5        30.19S
DMNS CITY PARK   N/A     77  58  52 NE6       30.19S
AURORA         MOSUNNY   74  58  57 VRB5      30.21S
FRONT RANGE AP PTSUNNY   77  59  53 N5        30.20F
ERIE MUNI ARPT PTSUNNY   76  58  54 N3        30.18S
BOULDER MUN AP NOT AVBL
CENTENNIAL     PTSUNNY   71  57  61 NW5       30.22S
BROOMFIELD     PTSUNNY   75  59  57 N6        30.22S
LONGMONT       NOT AVBL
$$

COZ041-046-047-076>085-087-088-291800-
...PIKES PEAK/PALMER DIVIDE AND SOUTHERN FOOTHILLS...

CITY           SKY/WX    TMP DP  RH WIND       PRES   REMARKS
COLO. SPRINGS  PTSUNNY   69  56  62 VRB5      30.26S
A. F. ACADEMY  MOSUNNY   72  55  55 S7        30.26S
SCHRIEVER AFB  NOT AVBL
ELLICOTT       NOT AVBL
FALCON         NOT AVBL
FORT CARSON    PTSUNNY   68  59  71 E6        30.23R
LIMON          PTSUNNY   72  57  59 SE9       30.22R
MONUMENT HILL  FAIR      70  52  52 W5        30.31R
TRINIDAD       NOT AVBL
$$

COZ042>045-048>051-090-091-291800-
...NORTHEAST COLORADO...

CITY           SKY/WX    TMP DP  RH WIND       PRES   REMARKS
GREELEY ARPT   FAIR      75  61  60 SE7       30.19S
AKRON          PTSUNNY   69  54  58 SE17      30.20R
BURLINGTON     PTSUNNY   70  60  70 E9        30.20R
WRAY           FAIR      79  55  44 E12       30.17S
STERLING       NOT AVBL
HOLYOKE        NOT AVBL
FORT MORGAN    NOT AVBL
$$

COZ086-089-092>099-291800-
...SOUTHEAST COLORADO...

CITY           SKY/WX    TMP DP  RH WIND       PRES   REMARKS
PUEBLO         FAIR      76  61  59 SE12      30.16S
LA JUNTA       FAIR      77  61  57 E7        30.14S
LAMAR          FAIR      75  64  68 E9        30.13R
SPRINGFIELD      N/A     75  62  64 SE12      30.17R
$$




USA.gov is the U.S. government's official web portal to all federal, state and local government web resources and services.